Starlink 31368

operational
NORAD ID: 58970 Int'l Des: 2024-031 Owner: SPXS Country: US Constellation: starlink
LEOCIRCULAR

About Starlink 31368

Description loading...

Live Position

Loading 3D Globe...

Upcoming Passes

Altitude History

Altitude vs Time

uPlot chart will show altitude changes over time

Two-Line Element Set

1 58970U 24031F 25304.67151701 .00000316 00000-0 22790-4 0 9995
2 58970 53.1588 175.7159 0000935 87.7168 272.3940 15.30190736 96782
Epoch: Oct 31, 2025 • Age: 10 hours

Current Status

Altitude 480.8 km
Velocity 7.63 km/s
Sub-Earth Point 51.55°N, 146.12°W
Launch Date Feb 15, 2024
Age 1.7 years
Type internet

Technical Details

Classification Payload
Mass 730.00 kg
Dry Mass 700.00 kg
Total Mass 730.00 kg
Length 0.30 m
Diameter 4.10 m
Span 29.00 m
Shape Box + pan
Manufacturer SPXS
Bus Type Starlink V2M
Phase Status In Orbit
Owner/State SPXS/US

Large Constellations

Loading constellations...